Terug naar catalogus

PRAETORIAN SDA_614

ActiefMilitairPO
NORAD 65577·PAYLOAD·🇺🇸 United States

Gelanceerd Sep 10, 2025 vanaf Vandenberg Space Force Base

Loading…

Volgende Passages (komende 24 uur)

TLE

VersSource: Space-Track

Epoch: Sep 14, 2026, 01:13 UTC

1 65577U 25203N   26257.05108749  .00000052  00000-0  35913-4 0  9990
2 65577  81.2987 288.2075 0006258 316.1641  43.9019 13.84784127 51010

Volg PRAETORIAN SDA_614 in realtime met AllMySat

Download on the App Store